{"data":{"norad_id":54866,"epoch":"2026-09-20T22:08:57.395328Z","epoch_age_seconds":56778,"freshness":"FRESH","line1":"1 54866U 22177AY  26263.92288652  .00000045  00000+0  11162-4 0  9992","line2":"2 54866  43.0039  98.6077 0001288 266.1561  93.9144 15.27576115206955","mean_motion":15.27576115,"eccentricity":0.0001288,"inclination_deg":43.0039,"raan_deg":98.6077,"arg_perigee_deg":266.1561,"mean_anomaly_deg":93.9144,"bstar":1.1162e-5,"rev_number":20695,"period_min":94.266988457069,"perigee_km":482.17700688441,"apogee_km":483.94445141944,"semimajor_km":6861.1977291519,"source":"CELESTRAK","updated_at":"2026-09-21T09:00:33.161695Z"}}